Погода в Калутаре

Шри-Ланка     6°35′05″N   79°57′46″E
темп.,
°C
ветер,
м/с
пор.,
м/с
влажн.,
%
обл.,
%
осадки,
мм/ч
давл.,
гПа
погр.,
м
23 апреля, пт
пт2323:30+27зюз358563 4.3 1012325
02:30+26зюз348567 10.4 1010272
05:30+26зсз2385100 19.6 1011256
08:30+28зсз1378100 3.7 1013530
11:30+29з34718 5.0 1012864
14:30+29з45698 0.3 1009958
17:30+28з35755 1.2 1009702
20:30+27зюз248012 0.1 1011380
24 апреля, сб
сб2423:30+27зюз23828 0.1 1011317
02:30+27зюз128382 1.5 1009354
05:30+26зюз018213 1.8 1009441
08:30+29юз01745 0.1 1012574
11:30+30зюз326827 0.3 10111012
14:30+30з336814 0.8 1008856
17:30+29зюз347367 1.1 1008695
20:30+28юз238097 0.9 1010397
25 апреля, вс
вс2523:30+27юз128358 2.5 1010376
02:30+26ссз118555 2.5 1009372
05:30+26ссв118718 2.6 1009178
08:30+28всв108131 0.1 1012301
11:30+30зюз326823 0.3 1010905
14:30+29зюз446925 0.1 1008648
17:30+29зюз34721 0.1 1008667
20:30+28зюз237860 0.3 1010420
26 апреля, пн
пн2623:30+27ююз228023 0.4 1010385
02:30+26ю128331 0.9 1008384
05:30+26ююв128415 1.9 1009366
08:30+28ююз23765 1.3 1011574
11:30+30юз33666 1.3 10101080
14:30+30юз44690 0.0 1007838
17:30+29юз34745 0.0 1008647
20:30+27ю238099 0.0 1010433
27 апреля, вт
вт2723:30+27ю238345 0.1 1010391
02:30+27ю348312 0.1 1008396
05:30+26ююв238337 0.3 1009371
08:30+29ююз237322 0.3 1011794
11:30+30юз446762 0.5 10101051
14:30+30юз446714 0.4 10081025
17:30+29юз347241 0.5 1008740
20:30+28ююз247978 0.0 1010443